Weather History for Crestview, FL

Change the Weather History Date:

Saturday, January 12, 2013

  Actual Average Record
Temperature  
Mean Temperature 70 °F -  
Max Temperature 75 °F - - ()
Min Temperature 65 °F - - ()
Cooling Degree Days 5    
Growing Degree Days 20 (Base 50)    
Moisture  
Dew Point 66 °F    
Average Humidity 93    
Maximum Humidity 100    
Minimum Humidity 65    
Precipitation  
Precipitation 0.00 in - - ()
Sea Level Pressure  
Sea Level Pressure 30.09 in    
Wind  
Wind Speed 7 mph (SSE)    
Max Wind Speed 17 mph    
Max Gust Speed 21 mph    
Visibility 8 miles    
Events      
T = Trace of Precipitation, MM = Missing Value Source: NWS Daily Summary

Daily Weather History Graph

Daily Weather History Graph

Search for Another Location

Airport:

Trip Planner

Search our weather history database for the weather conditions in past years. The results will help you decide how hot, cold, wet, or windy it might be!

Date:

Astronomy

Jan. 12, 2013 Rise Set
Actual Time 6:44 AM CST 5:04 PM CST
Civil Twilight 6:18 AM CST 5:31 PM CST
Nautical Twilight 5:48 AM CST 6:00 PM CST
Astronomical Twilight 5:19 AM CST 6:29 PM CST
Moon 7:09 AM CST (1/12) 6:24 PM CST (1/12)
Length of Visible Light 11h 12m
Length of Day
10h 20m
New Moon, 1% of the Moon is Illuminated
Jan 12
New Moon
Jan 18
First Quarter
Jan 26
Full
Feb 3
Last Quarter
Feb 10
New

Hourly Weather History & Observations

Time (CST) Temp. Dew Point Humidity Pressure Visibility Wind Dir Wind Speed Gust Speed Precip Events Conditions
12:17 AM 66.2 °F 66.2 °F 100% 30.14 in 10.0 mi SSE 6.9 mph - N/A   Overcast
12:36 AM 66.2 °F 66.2 °F 100% 30.14 in 10.0 mi SSE 6.9 mph - N/A   Overcast
12:55 AM 66.9 °F 66.6 °F 99% 30.14 in 10.0 mi South 6.9 mph - N/A   Overcast
1:12 AM 66.2 °F 66.2 °F 100% 30.14 in 10.0 mi SSE 5.8 mph - N/A   Overcast
1:36 AM 66.2 °F 66.2 °F 100% 30.14 in 10.0 mi SSE 4.6 mph - N/A   Mostly Cloudy
1:40 AM 66.2 °F 66.2 °F 100% 30.14 in 10.0 mi SSE 4.6 mph - N/A   Mostly Cloudy
1:55 AM 66.7 °F 66.4 °F 99% 30.14 in 10.0 mi SSE 5.8 mph - N/A   Mostly Cloudy
1:59 AM 66.2 °F 66.2 °F 100% 30.13 in 10.0 mi SE 4.6 mph - N/A   Mostly Cloudy
2:46 AM 66.2 °F 64.4 °F 94% 30.12 in 9.0 mi SE 4.6 mph - N/A   Partly Cloudy
2:49 AM 66.2 °F 64.4 °F 94% 30.12 in 9.0 mi SE 4.6 mph - N/A   Partly Cloudy
2:55 AM 65.7 °F 65.5 °F 99% 30.12 in 6.0 mi SE 5.8 mph - N/A   Scattered Clouds
3:00 AM 66.2 °F 66.2 °F 100% 30.11 in 2.5 mi SE 5.8 mph - N/A   Mostly Cloudy
3:04 AM 66.2 °F 66.2 °F 100% 30.11 in 2.0 mi SE 6.9 mph - N/A   Mostly Cloudy
3:09 AM 66.2 °F 66.2 °F 100% 30.11 in 1.8 mi SE 6.9 mph - N/A   Overcast
3:12 AM 66.2 °F 66.2 °F 100% 30.11 in 2.0 mi SE 5.8 mph - N/A   Overcast
3:16 AM 66.2 °F 66.2 °F 100% 30.11 in 2.5 mi SSE 5.8 mph - N/A   Overcast
3:22 AM 66.2 °F 66.2 °F 100% 30.11 in 2.0 mi SSE 5.8 mph - N/A   Overcast
3:32 AM 66.2 °F 66.2 °F 100% 30.11 in 2.5 mi SE 4.6 mph - N/A   Overcast
3:51 AM 66.2 °F 66.2 °F 100% 30.09 in 3.0 mi SE 5.8 mph - N/A   Overcast
3:55 AM 66.2 °F 65.8 °F 99% 30.09 in 3.0 mi SE 6.9 mph - N/A   Overcast
4:30 AM 66.2 °F 66.2 °F 100% 30.09 in 6.0 mi SSE 6.9 mph - N/A   Overcast
4:31 AM 66.2 °F 66.2 °F 100% 30.09 in 6.0 mi SSE 5.8 mph - N/A   Overcast
4:40 AM 66.2 °F 66.2 °F 100% 30.10 in 6.0 mi SSE 4.6 mph - N/A   Overcast
4:55 AM 65.8 °F 65.5 °F 99% 30.09 in 10.0 mi SSE 4.6 mph - N/A   Overcast
4:59 AM 66.2 °F 66.2 °F 100% 30.10 in 10.0 mi SSE 5.8 mph - N/A   Overcast
5:31 AM 66.2 °F 66.2 °F 100% 30.10 in 10.0 mi SSE 5.8 mph - N/A   Overcast
5:41 AM 66.2 °F 66.2 °F 100% 30.11 in 10.0 mi SSE 6.9 mph - N/A   Overcast
5:55 AM 65.8 °F 65.5 °F 99% 30.11 in 9.0 mi SSE 8.1 mph - N/A   Overcast
6:09 AM 66.2 °F 66.2 °F 100% 30.12 in 3.0 mi SE 8.1 mph - N/A   Overcast
6:44 AM 66.2 °F 64.4 °F 94% 30.12 in 10.0 mi SSE 4.6 mph - N/A   Overcast
6:54 AM 66.2 °F 64.4 °F 94% 30.12 in 10.0 mi SE 5.8 mph - N/A   Overcast
6:55 AM 65.5 °F 65.1 °F 99% 30.12 in 10.0 mi SE 6.9 mph - N/A   Overcast
7:10 AM 66.2 °F 64.4 °F 94% 30.12 in 10.0 mi SE 8.1 mph - N/A   Overcast
7:12 AM 66.2 °F 64.4 °F 94% 30.12 in 10.0 mi SE 6.9 mph - N/A   Overcast
7:28 AM 66.2 °F 66.2 °F 100% 30.13 in 10.0 mi SSE 9.2 mph - N/A   Overcast
7:55 AM 66.0 °F 65.5 °F 98% 30.14 in 10.0 mi SE 6.9 mph - N/A   Overcast
8:12 AM 66.2 °F 64.4 °F 94% 30.14 in 10.0 mi Variable 5.8 mph - N/A   Scattered Clouds
8:55 AM 70.2 °F 63.3 °F 79% 30.15 in 10.0 mi SSE 10.4 mph - N/A   Clear
9:55 AM 73.8 °F 62.2 °F 67% 30.15 in 10.0 mi SSE 11.5 mph - N/A   Clear
10:55 AM 75.0 °F 62.6 °F 65% 30.13 in 10.0 mi SSE 16.1 mph - N/A   Clear
11:55 AM 73.9 °F 63.9 °F 71% 30.11 in 10.0 mi South 17.3 mph - N/A   Partly Cloudy
12:55 PM 75.2 °F 64.4 °F 69% 30.09 in 10.0 mi South 12.7 mph - N/A   Partly Cloudy
1:55 PM 75.7 °F 63.9 °F 66% 30.08 in 10.0 mi SSE 12.7 mph - N/A   Mostly Cloudy
2:55 PM 72.5 °F 64.2 °F 75% 30.06 in 10.0 mi South 12.7 mph - N/A   Mostly Cloudy
3:10 PM 71.6 °F 64.4 °F 78% 30.06 in 10.0 mi SSE 9.2 mph - N/A   Mostly Cloudy
3:35 PM 73.4 °F 66.2 °F 78% 30.07 in 10.0 mi SSE 11.5 mph - N/A   Mostly Cloudy
3:55 PM 71.2 °F 65.3 °F 81% 30.08 in 10.0 mi SSE 12.7 mph - N/A   Mostly Cloudy
4:55 PM 69.8 °F 65.8 °F 87% 30.07 in 10.0 mi SSE 11.5 mph - N/A   Mostly Cloudy
5:26 PM 69.8 °F 66.2 °F 88% 30.07 in 10.0 mi SSE 8.1 mph - N/A   Overcast
5:55 PM 68.9 °F 65.8 °F 90% 30.07 in 10.0 mi SSE 8.1 mph - N/A   Overcast
6:55 PM 68.5 °F 66.0 °F 92% 30.06 in 10.0 mi SSE 9.2 mph - N/A   Overcast
7:09 PM 68.0 °F 66.2 °F 94% 30.05 in 10.0 mi SSE 11.5 mph - N/A   Overcast
7:55 PM 68.4 °F 66.2 °F 93% 30.05 in 10.0 mi SSE 6.9 mph - N/A   Overcast
8:55 PM 68.4 °F 66.2 °F 93% 30.06 in 10.0 mi SSE 8.1 mph - N/A   Overcast
9:17 PM 68.0 °F 66.2 °F 94% 30.05 in 10.0 mi SSE 11.5 mph 16.1 mph N/A   Overcast
9:55 PM 68.2 °F 66.9 °F 96% 30.03 in 10.0 mi SSE 11.5 mph - N/A   Overcast
10:07 PM 68.0 °F 66.2 °F 94% 30.03 in 10.0 mi SSE 10.4 mph - N/A   Overcast
10:25 PM 68.0 °F 66.2 °F 94% 30.04 in 10.0 mi SSE 12.7 mph 20.7 mph N/A   Overcast
10:34 PM 68.0 °F 66.2 °F 94% 30.04 in 10.0 mi SSE 12.7 mph 20.7 mph N/A   Overcast
10:46 PM 68.0 °F 66.2 °F 94% 30.04 in 10.0 mi SSE 10.4 mph - N/A   Overcast
10:55 PM 68.2 °F 66.9 °F 96% 30.04 in 10.0 mi SSE 10.4 mph - N/A   Overcast
11:05 PM 68.0 °F 66.2 °F 94% 30.04 in 10.0 mi SSE 13.8 mph - N/A   Overcast
11:31 PM 68.0 °F 66.2 °F 94% 30.04 in 10.0 mi SSE 10.4 mph - N/A   Overcast
11:40 PM 68.0 °F 66.2 °F 94% 30.04 in 10.0 mi SSE 9.2 mph - N/A   Overcast
11:55 PM 68.7 °F 66.7 °F 93% 30.03 in 10.0 mi SSE 9.2 mph - N/A   Overcast